Lakehurst NAES /Maxfield Field
KNEL : now visible

Airfield :











YOU CAN JOIN US ON...

 
LOGIN :

Register | Disclaimer

   EN    FR    IT 

 









Legend :    VFR   Marginal VFR   IFR   Intensive IFR   Very Intensive IFR
Visi :
Ceiling :
>= 8 km
>= 3000ft
5 to 8 km
1000 to 3000 ft
1500m to 5 km
500 to 1000 ft
800 to 1500m
200 to 500 ft
< 800m
< 200 ft
Symbols :   Thunderstorms  Fog  Heavy snow  Heavy precipitations  Wind > 20 kt






- Airport Elevation : 101 ft
- IATA code : NEL


KNEL - Lakehurst NAES /Maxfield Field

CURRENT METAR :
  • 190700Z AUTO 23004KT SCT055 20/17 A3029 RMK AO2 SLP256 T02000172 $

EXPIRED METARs :
  • 190600Z AUTO 00000KT CLR 21/17 A3029 RMK AO2 SLP255 T02110172 10267 20206 50006 $
  • 190500Z AUTO 19003KT CLR 21/18 A3029 RMK AO2 SLP256 T02110178 402110211 $
  • 190400Z AUTO 20004KT CLR 21/17 A3030 RMK AO2 SLP258 T02110172 $
  • 190300Z AUTO 20005KT CLR 22/16 A3029 RMK AO2 SLP254 T02220161 53019 $

TAF N/A
KZNY FIR / North America



MET'MAP, your aeronautical weather chart ! - Copyright ORBIFLY December 2007 - Disclaimer

ORBIFLY MET'MAP TEAM :

Programming & Development : Alexandra Zaïnal
Original concept : Baudouin d'Aumeries
Technical & hardware support : Manuel Goepfert
Assistance : Marc-Olivier Méhu




SOURCES & CREDITS :

   NOAA       Earth
Advisory